Weather History for KSAF - February, 2013

Change the Weather History Date:

Wednesday, February 13, 2013

  Actual Average Record
Temperature  
Mean Temperature 32 °F -  
Max Temperature 46 °F 0 °F - (-1)
Min Temperature 17 °F - - (-1)
Degree Days  
Heating Degree Days 34    
Moisture  
Dew Point 10 °F    
Average Humidity 45    
Maximum Humidity 68    
Minimum Humidity 22    
Precipitation  
Precipitation 0.00 in - - ()
Sea Level Pressure  
Sea Level Pressure 30.08 in    
Wind  
Wind Speed 9 mph (NW)    
Max Wind Speed 20 mph    
Max Gust Speed 29 mph    
Visibility 10 miles    
Events      
Averages and records for this station are not official NWS values.
T = Trace of Precipitation, MM = Missing Value Source: NWS Daily Summary

Daily Weather History Graph

Daily Weather History Graph

Search for Another Location

Airport or City:

Trip Planner

Search our weather history database for the weather conditions in past years. The results will help you decide how hot, cold, wet, or windy it might be!

Date:

Astronomy

Feb. 13, 2013 Rise Set
Actual Time 6:52 AM MST 5:44 PM MST
Civil Twilight 6:26 AM MST 6:10 PM MST
Nautical Twilight 5:56 AM MST 6:40 PM MST
Astronomical Twilight 5:27 AM MST 7:10 PM MST
Moon 8:33 AM MST (2/13) 9:39 PM MST (2/13)
Length of Visible Light 11h 44m
Length of Day
10h 51m
Waxing Crescent, 14% of the Moon is Illuminated
Feb 13
Waxing Crescent
Feb 17
First Quarter
Feb 25
Full
Mar 4
Last Quarter
Mar 11
New

Hourly Weather History & Observations

Time (MST) Temp. Windchill Dew Point Humidity Pressure Visibility Wind Dir Wind Speed Gust Speed Precip Events Conditions
12:53 AM 21.0 °F 14.6 °F 7.0 °F 55% 30.14 in 10.0 mi West 4.6 mph - N/A   Clear
1:53 AM 18.0 °F 8.7 °F 7.0 °F 62% 30.15 in 10.0 mi WSW 6.9 mph - N/A   Clear
2:53 AM 17.1 °F 11.7 °F 7.0 °F 65% 30.13 in 10.0 mi WNW 3.5 mph - N/A   Clear
3:53 AM 21.0 °F 8.6 °F 9.0 °F 60% 30.09 in 10.0 mi North 12.7 mph - N/A   Clear
5:53 AM 18.0 °F 5.4 °F 9.0 °F 68% 30.14 in 10.0 mi North 11.5 mph - N/A   Clear
6:53 AM 19.0 °F 9.0 °F 9.0 °F 65% 30.16 in 10.0 mi NNW 8.1 mph - N/A   Clear
7:53 AM 21.0 °F 9.9 °F 9.0 °F 60% 30.19 in 10.0 mi North 10.4 mph - N/A   Clear
8:53 AM 25.0 °F 12.2 °F 9.0 °F 51% 30.17 in 10.0 mi NNW 16.1 mph 21.9 mph N/A   Clear
9:53 AM 30.0 °F 17.5 °F 8.1 °F 40% 30.14 in 10.0 mi North 19.6 mph 28.8 mph N/A   Clear
10:53 AM 35.1 °F 24.1 °F 9.0 °F 34% 30.11 in 10.0 mi North 19.6 mph - N/A   Clear
11:53 AM 39.9 °F 31.4 °F 7.0 °F 26% 30.06 in 10.0 mi NNW 16.1 mph 24.2 mph N/A   Clear
12:53 PM 43.0 °F 35.7 °F 7.0 °F 23% 30.03 in 10.0 mi NNW 15.0 mph 21.9 mph N/A   Clear
1:53 PM 44.1 °F 37.7 °F 8.1 °F 23% 30.01 in 10.0 mi NNW 12.7 mph - N/A   Clear
2:53 PM 46.0 °F 41.9 °F 9.0 °F 22% 30.00 in 10.0 mi NNW 8.1 mph - N/A   Clear
3:53 PM 44.1 °F 39.5 °F 9.0 °F 24% 29.99 in 10.0 mi West 8.1 mph - N/A   Clear
4:53 PM 43.0 °F 38.8 °F 12.0 °F 28% 29.99 in 10.0 mi WSW 6.9 mph - N/A   Clear
5:53 PM 39.9 °F 37.8 °F 12.9 °F 33% 30.03 in 10.0 mi West 3.5 mph - N/A   Clear
6:53 PM 36.0 °F 33.3 °F 12.9 °F 39% 30.06 in 10.0 mi Variable 3.5 mph - N/A   Clear
7:53 PM 30.0 °F 25.2 °F 12.9 °F 49% 30.09 in 10.0 mi West 4.6 mph - N/A   Clear
8:53 PM 30.0 °F 23.2 °F 12.9 °F 49% 30.09 in 10.0 mi SSW 6.9 mph - N/A   Clear
9:53 PM 28.9 °F 21.9 °F 14.0 °F 54% 30.07 in 10.0 mi NNW 6.9 mph - N/A   Clear
10:53 PM 28.0 °F 22.8 °F 15.1 °F 58% 30.06 in 10.0 mi NW 4.6 mph - N/A   Clear
11:53 PM 28.0 °F 21.7 °F 15.1 °F 58% 30.05 in 10.0 mi WNW 5.8 mph - N/A   Clear